This is the latest recevied weather packets stored in our database for station/object WA4OPQ-3. If no packets are shown the sender has not sent any weather packets the latest 10 day(s).
| Time | Temp. | Humidity | Pressure | Rain* | Wind** | Luminosity | Snow |
|---|---|---|---|---|---|---|---|
| 1777480972 | 20° C | 98% | 1012.7 hPa | 0 mm | - | 526 W/m² | - |
| 1777480367 | 19.44° C | 99% | 1012.6 hPa | 0 mm | - | 190 W/m² | - |
| 1777479762 | 20.56° C | 99% | 1012.5 hPa | 0 mm | - | 132 W/m² | - |
| 1777479157 | 20.56° C | 99% | 1012.2 hPa | 0 mm | - | 164 W/m² | - |
| 1777478552 | 20° C | 99% | 1012.4 hPa | 0 mm | - | 868 W/m² | - |
| 1777477947 | 20° C | 99% | 1012.3 hPa | 0 mm | - | 334 W/m² | - |
| 1777477342 | 19.44° C | 99% | 1012.2 hPa | 0 mm | - | 407 W/m² | - |
| 1777476736 | 19.44° C | 99% | 1012.4 hPa | 0 mm | - | 218 W/m² | - |
| 1777476121 | 19.44° C | 99% | 1012.3 hPa | 0.51 mm | - | 154 W/m² | - |
| 1777475515 | 19.44° C | 99% | 1012.1 hPa | 0.51 mm | - | 288 W/m² | - |
| 1777474911 | 19.44° C | 99% | 1011.9 hPa | 0.51 mm | - | 213 W/m² | - |
| 1777474307 | 19.44° C | 99% | 1012 hPa | 0.51 mm | - | 158 W/m² | - |
| 1777473702 | 19.44° C | 99% | 1012.1 hPa | 0.51 mm | - | 224 W/m² | - |
| 1777473096 | 18.89° C | 99% | 1012.1 hPa | 0.51 mm | - | 70 W/m² | - |
| 1777472490 | 18.89° C | 99% | 1011.7 hPa | 0 mm | - | 75 W/m² | - |
| 1777471885 | 18.89° C | 99% | 1011.6 hPa | 0 mm | - | 59 W/m² | - |
| 1777471281 | 18.89° C | 99% | 1011.4 hPa | 0 mm | - | 61 W/m² | - |
| 1777470675 | 18.89° C | 99% | 1011.5 hPa | 0 mm | - | 72 W/m² | - |
| 1777470071 | 18.89° C | 99% | 1011.3 hPa | 0 mm | - | 119 W/m² | - |
| 1777469466 | 18.33° C | 99% | 1011.3 hPa | 0 mm | - | 97 W/m² | - |
| 1777468862 | 18.33° C | 99% | 1011 hPa | 0 mm | - | 97 W/m² | - |
| 1777468256 | 18.33° C | 99% | 1011 hPa | 0 mm | - | 85 W/m² | - |
| 1777467652 | 17.78° C | 99% | 1011.1 hPa | 0 mm | - | 76 W/m² | - |
| 1777467047 | 17.78° C | 99% | 1011.3 hPa | 0 mm | - | 43 W/m² | - |
| 1777466441 | 17.78° C | 99% | 1011.4 hPa | 0 mm | - | 24 W/m² | - |
* Rain latest hour (hover to see other rain measurements)
** Current wind speed in m/s (hover to see current wind gust speed)